Lake Charles, LA

3:41 PM CDT on July 25, 2016 (GMT -0500)
Lake Charles Regional

Weather History for KLCH - August, 2014

Change the Weather History Date:

Saturday, August 30, 2014

  Actual Average Record
Temperature  
Mean Temperature 76 °F 82 °F  
Max Temperature 78 °F 91 °F 105 °F (2000)
Min Temperature 73 °F 73 °F 61 °F (1986)
Degree Days  
Heating Degree Days 0 0  
Month to date heating degree days 0 0  
Since 1 June heating degree days 0 0  
Since 1 July heating degree days 0 0  
Cooling Degree Days 11 17  
Month to date cooling degree days 541 536  
Year to date cooling degree days 1992 2107  
Since 1 June cooling degree days 1553 1569  
Growing Degree Days 26 (Base 50)    
Moisture  
Dew Point 74 °F    
Average Humidity 94    
Maximum Humidity 100    
Minimum Humidity 88    
Precipitation  
Precipitation 7.87 in 0.17 in 7.87 in (2014)
Month to date precipitation 15.74 4.70  
Year to date precipitation 52.07 38.06  
Snow  
Snow 0.00 in 0.00 in 0.00 in ()
Month to date snowfall 0.0 0.0  
Since 1 June snowfall 0.0 0.0  
Since 1 July snowfall 0.0 0.0  
Snow Depth 0.00 in    
Sea Level Pressure  
Sea Level Pressure 29.96 in    
Wind  
Wind Speed 6 mph (SE)    
Max Wind Speed 15 mph    
Max Gust Speed 20 mph    
Visibility 5 miles    
Events Fog , Rain , Thunderstorm    
T = Trace of Precipitation, MM = Missing Value Source: NWS Daily Summary

Daily Weather History Graph

Daily Weather History Graph

Search for Another Location

Airport or City:

Trip Planner

Search our weather history database for the weather conditions in past years. The results will help you decide how hot, cold, wet, or windy it might be!

Date:

Astronomy

Aug. 30, 2014 Rise Set
Actual Time 6:48 AM CDT 7:37 PM CDT
Civil Twilight 6:24 AM CDT 8:02 PM CDT
Nautical Twilight 5:55 AM CDT 8:30 PM CDT
Astronomical Twilight 5:25 AM CDT 9:00 PM CDT
Moon 11:13 AM CDT (8/30) 10:36 PM CDT (8/30)
Length of Visible Light 13h 37m
Length of Day
12h 49m
Waxing Crescent, 23% of the Moon is Illuminated
Aug 30
Waxing Crescent
Sep 2
First Quarter
Sep 8
Full
Sep 15
Last Quarter
Sep 24
New

Hourly Weather History & Observations

Time (CDT) Temp. Dew Point Humidity Pressure Visibility Wind Dir Wind Speed Gust Speed Precip Events Conditions
12:53 AM 75.9 °F 73.9 °F 94% 29.97 in 10.0 mi ESE 8.1 mph - 0.00 in   Partly Cloudy
1:53 AM 77.0 °F 73.9 °F 90% 29.96 in 10.0 mi ESE 6.9 mph - N/A   Scattered Clouds
2:53 AM 77.0 °F 75.0 °F 94% 29.95 in 9.0 mi East 5.8 mph - 0.01 in Rain Light Rain
3:13 AM 75.9 °F 75.0 °F 97% 29.93 in 2.5 mi ESE 4.6 mph - 0.08 in Rain Light Rain
3:21 AM 77.0 °F 75.0 °F 94% 29.94 in 7.0 mi SE 9.2 mph - 0.08 in Rain Light Rain
3:53 AM 77.0 °F 75.0 °F 94% 29.94 in 10.0 mi Calm Calm - 0.09 in Rain Light Rain
4:15 AM 75.9 °F 75.0 °F 97% 29.91 in 1.8 mi NNE 11.5 mph - 0.02 in Rain Heavy Rain
4:22 AM 75.9 °F 75.0 °F 97% 29.91 in 1.0 mi NNE 12.7 mph - 0.27 in Rain , Thunderstorm Heavy Rain
4:32 AM 75.0 °F 73.9 °F 96% 29.92 in 0.8 mi NNE 9.2 mph - 0.55 in Rain , Thunderstorm Heavy Rain
4:45 AM 75.0 °F 73.9 °F 96% 29.90 in 0.5 mi NNW 13.8 mph 19.6 mph 1.69 in Fog , Rain , Thunderstorm Heavy Rain
4:53 AM 73.9 °F 73.0 °F 97% 29.94 in 0.5 mi North 4.6 mph - 2.16 in Fog , Rain , Thunderstorm Heavy Rain
5:08 AM 75.0 °F 73.9 °F 96% 29.91 in 1.0 mi Calm Calm - 0.64 in Rain Heavy Rain
5:15 AM 75.0 °F 73.9 °F 96% 29.90 in 1.2 mi ENE 9.2 mph - 0.84 in Rain Heavy Rain
5:19 AM 75.0 °F 73.9 °F 96% 29.90 in 3.0 mi NE 5.8 mph - 0.84 in Rain Light Rain
5:28 AM 75.0 °F 73.9 °F 96% 29.90 in 10.0 mi Calm Calm - 0.85 in Rain Light Rain
5:53 AM 75.9 °F 73.9 °F 94% 29.92 in 10.0 mi East 8.1 mph - 0.87 in   Overcast
6:02 AM 75.9 °F 73.9 °F 94% 29.90 in 10.0 mi East 5.8 mph - N/A   Overcast
6:20 AM 75.9 °F 73.9 °F 94% 29.91 in 10.0 mi North 3.5 mph - N/A   Overcast
6:37 AM 75.9 °F 73.9 °F 94% 29.91 in 2.5 mi SSE 4.6 mph - 0.00 in Rain Heavy Rain
6:39 AM 75.9 °F 73.9 °F 94% 29.91 in 1.5 mi Calm Calm - 0.04 in Rain Heavy Rain
6:53 AM 75.9 °F 73.9 °F 94% 29.95 in 0.8 mi SW 11.5 mph 18.4 mph 0.32 in Rain Heavy Rain
7:01 AM 75.9 °F 75.0 °F 97% 29.92 in 0.5 mi South 10.4 mph 18.4 mph 0.50 in Fog , Rain Heavy Rain
7:08 AM 75.9 °F 75.0 °F 97% 29.92 in 1.5 mi South 8.1 mph - 0.61 in Rain Heavy Rain
7:21 AM 75.0 °F 73.0 °F 94% 29.94 in 1.0 mi SSW 11.5 mph - 0.90 in Rain Heavy Rain
7:28 AM 75.9 °F 73.9 °F 94% 29.94 in 1.5 mi SW 5.8 mph - 1.00 in Rain , Thunderstorm Heavy Rain
7:34 AM 75.9 °F 73.9 °F 94% 29.94 in 3.0 mi SW 4.6 mph - 1.02 in Rain , Thunderstorm Rain
7:41 AM 75.9 °F 73.0 °F 91% 29.94 in 5.0 mi Calm Calm - 1.03 in Rain , Thunderstorm Rain
7:45 AM 75.9 °F 73.0 °F 91% 29.94 in 5.0 mi Calm Calm - 1.04 in Rain Rain
7:53 AM 75.9 °F 73.0 °F 91% 29.96 in 2.0 mi Calm Calm - 1.06 in Rain Heavy Rain
7:55 AM 75.9 °F 73.0 °F 91% 29.94 in 1.8 mi NNE 3.5 mph - 0.03 in Rain Heavy Rain
8:08 AM 75.0 °F 73.9 °F 96% 29.95 in 0.8 mi WNW 9.2 mph - 0.23 in Rain Heavy Rain
8:17 AM 75.0 °F 73.9 °F 96% 29.96 in 0.5 mi NW 5.8 mph - 0.78 in Fog , Rain Heavy Rain
8:25 AM 73.9 °F 73.0 °F 97% 29.97 in 0.5 mi ESE 5.8 mph - 1.13 in Fog , Rain Heavy Rain
8:34 AM 73.9 °F 73.0 °F 97% 29.97 in 0.2 mi Calm Calm - 1.97 in Fog , Rain Heavy Rain
8:42 AM 73.0 °F 72.0 °F 96% 29.95 in 0.5 mi North 6.9 mph - 2.46 in Fog , Rain Heavy Rain
8:51 AM 73.4 °F 71.6 °F 94% 29.94 in 2.0 mi North 6.9 mph - 2.64 in Rain Rain
8:53 AM 73.0 °F 72.0 °F 96% 29.96 in 3.0 mi North 3.5 mph - 2.64 in Rain Rain
9:03 AM 73.0 °F 72.0 °F 96% 29.96 in 5.0 mi SSE 3.5 mph - 0.02 in Rain Light Rain
9:15 AM 73.0 °F 72.0 °F 96% 29.97 in 4.0 mi South 3.5 mph - 0.05 in Rain Rain
9:53 AM 73.9 °F 73.0 °F 97% 29.99 in 4.0 mi East 4.6 mph - 0.13 in Rain Rain
10:53 AM 75.0 °F 73.9 °F 96% 30.00 in 5.0 mi ENE 3.5 mph - 0.14 in Rain Rain
11:16 AM 75.0 °F 73.9 °F 96% 29.99 in 2.5 mi Calm Calm - 0.06 in Rain Rain
11:24 AM 75.0 °F 73.9 °F 96% 29.99 in 3.0 mi NNE 3.5 mph - 0.08 in Rain Heavy Rain
11:53 AM 75.0 °F 73.9 °F 96% 30.01 in 6.0 mi ESE 5.8 mph - 0.11 in Rain Light Rain
12:07 PM 75.0 °F 73.9 °F 96% 29.99 in 4.0 mi ESE 5.8 mph - 0.02 in Rain Rain
12:53 PM 75.9 °F 75.0 °F 97% 30.00 in 9.0 mi SSE 9.2 mph - 0.07 in Rain Light Rain
1:04 PM 75.9 °F 73.9 °F 94% 29.98 in 10.0 mi South 5.8 mph - 0.00 in Rain Light Rain
1:53 PM 75.0 °F 73.0 °F 94% 30.01 in 6.0 mi South 9.2 mph - 0.04 in Rain Rain
2:33 PM 75.9 °F 73.9 °F 94% 29.97 in 5.0 mi South 5.8 mph - 0.04 in Rain Rain
2:53 PM 75.9 °F 75.0 °F 97% 29.99 in 8.0 mi South 6.9 mph - 0.06 in Rain Light Rain
3:04 PM 75.9 °F 75.0 °F 97% 29.96 in 8.0 mi South 5.8 mph - 0.01 in Rain Light Rain
3:40 PM 77.0 °F 75.0 °F 94% 29.96 in 7.0 mi South 4.6 mph - 0.02 in Rain Light Rain
3:53 PM 77.0 °F 75.9 °F 96% 29.99 in 5.0 mi South 4.6 mph - 0.03 in Rain Light Rain
4:00 PM 77.0 °F 75.9 °F 96% 29.97 in 5.0 mi South 5.8 mph - 0.01 in Rain Rain
4:51 PM 78.8 °F 75.2 °F 89% 29.97 in 10.0 mi South 6.9 mph - 0.05 in Rain Light Rain
4:53 PM 78.1 °F 75.9 °F 93% 30.00 in 10.0 mi SSE 6.9 mph - 0.05 in Rain , Thunderstorm Light Rain
5:11 PM 77.0 °F 75.0 °F 94% 29.97 in 2.5 mi South 10.4 mph 17.3 mph 0.01 in Rain Rain
5:27 PM 77.0 °F 73.9 °F 90% 29.97 in 7.0 mi South 8.1 mph - 0.06 in Rain Light Rain
5:53 PM 75.9 °F 73.9 °F 94% 29.98 in 8.0 mi SSE 8.1 mph - 0.08 in Rain Light Rain
6:53 PM 75.9 °F 73.9 °F 94% 29.97 in 10.0 mi SE 11.5 mph - 0.00 in   Mostly Cloudy
7:03 PM 75.9 °F 73.9 °F 94% 29.96 in 10.0 mi SSE 9.2 mph - N/A   Scattered Clouds
7:53 PM 75.9 °F 73.9 °F 94% 30.00 in 10.0 mi Calm Calm - N/A   Mostly Cloudy
8:53 PM 75.0 °F 73.9 °F 96% 30.01 in 10.0 mi ENE 4.6 mph - N/A   Mostly Cloudy
9:35 PM 75.0 °F 73.9 °F 96% 30.00 in 10.0 mi East 5.8 mph - 0.00 in Rain Light Rain
9:53 PM 75.2 °F 73.4 °F 94% 30.00 in 7.0 mi East 6.9 mph - N/A Rain Light Rain
10:53 PM 75.0 °F 73.9 °F 96% 30.01 in 10.0 mi East 5.8 mph - 0.00 in   Partly Cloudy
11:53 PM 75.0 °F 73.9 °F 96% 30.01 in 10.0 mi SSE 4.6 mph - N/A   Clear